#�ϑ�����,���ϕ���,���ϕ���,�ő啗��,�ő啗����������,�ő�u�ԕ���,�ő�u�ԕ�����������
#(�N����),(m/s)   ,(16����),(m/s)   ,(16����)        ,(m/s)       ,(16����)            
2014/3/31 0:01,4.6,16,4.6,16,11.1,16
2014/3/31 0:02,4.7,16,4.7,16,7.7,15
2014/3/31 0:03,4.9,16,4.9,16,5.2,2
2014/3/31 0:04,5.2,16,5.2,16,9.7,1
2014/3/31 0:05,5.1,16,5.2,16,5.6,16
2014/3/31 0:06,4.6,16,5.1,16,6.4,15
2014/3/31 0:07,4.2,16,4.6,16,4.1,16
2014/3/31 0:08,3.8,16,4.1,16,4.5,1
2014/3/31 0:09,3.6,16,3.8,16,10.3,16
2014/3/31 0:10,3.6,16,3.6,16,10.5,15
2014/3/31 0:11,3.3,16,3.6,16,3.1,15
2014/3/31 0:12,3.2,16,3.2,16,8.5,15
2014/3/31 0:13,3,16,3.2,16,4.9,2
2014/3/31 0:14,3,16,3.1,16,11.9,15
2014/3/31 0:15,3.3,16,3.3,16,7.7,2
2014/3/31 0:16,3.5,16,3.5,16,9.4,15
2014/3/31 0:17,3.7,16,3.7,16,6,1
2014/3/31 0:18,4.1,16,4.1,16,11.5,2
2014/3/31 0:19,4.1,16,4.2,16,8.3,15
2014/3/31 0:20,3.9,16,4,16,6.8,16
2014/3/31 0:21,4.3,16,4.3,16,10.8,16
2014/3/31 0:22,4.3,16,4.4,16,8.1,15
2014/3/31 0:23,5,16,5,16,13.4,16
2014/3/31 0:24,5.1,16,5.2,16,12.1,16
2014/3/31 0:25,5.1,16,5.1,16,6.7,16
2014/3/31 0:26,5,16,5.1,16,8.2,1
2014/3/31 0:27,4.8,16,5,16,5,15
2014/3/31 0:28,4.7,16,4.9,16,7.1,16
2014/3/31 0:29,4.8,16,4.8,16,11.9,15
2014/3/31 0:30,5.1,16,5.1,16,11.4,1
2014/3/31 0:31,5.1,16,5.3,16,11.7,16
2014/3/31 0:32,5.2,16,5.2,16,9.8,15
2014/3/31 0:33,4.8,16,5.2,16,7.7,16
2014/3/31 0:34,4.6,16,4.7,16,6,1
2014/3/31 0:35,4.6,16,4.6,16,9.7,15
2014/3/31 0:36,4.6,16,4.6,16,8.9,14
2014/3/31 0:37,4.6,16,4.6,16,6.4,1
2014/3/31 0:38,4.7,16,4.7,16,6.9,15
2014/3/31 0:39,4.4,16,4.7,16,6.5,14
2014/3/31 0:40,4.5,16,4.5,16,8.9,16
2014/3/31 0:41,4.5,16,4.5,16,8.7,16
2014/3/31 0:42,4.5,16,4.5,16,9.5,1
2014/3/31 0:43,4.4,16,4.5,16,10.6,1
2014/3/31 0:44,4.6,16,4.6,16,11.4,16
2014/3/31 0:45,4.4,16,4.5,16,7.5,15
2014/3/31 0:46,4.5,16,4.6,16,9.8,15
2014/3/31 0:47,4.7,16,4.7,16,8.4,16
2014/3/31 0:48,4.5,16,4.7,16,6,2
2014/3/31 0:49,4.7,16,4.7,16,9.8,15
2014/3/31 0:50,4.5,16,4.7,16,9.4,1
2014/3/31 0:51,4.7,16,4.7,16,10.8,15
2014/3/31 0:52,4.7,16,4.8,16,8.2,16
2014/3/31 0:53,5,16,5,16,14.1,16
2014/3/31 0:54,5.3,16,5.3,16,11.9,1
2014/3/31 0:55,5.7,16,5.7,16,9.5,16
2014/3/31 0:56,5.8,16,5.8,16,11.9,16
2014/3/31 0:57,6,16,6,16,10.5,1
2014/3/31 0:58,6.3,16,6.3,16,10.5,15
2014/3/31 0:59,6.3,16,6.3,16,9.3,1
2014/3/31 1:00,6.2,16,6.3,16,7.4,16
2014/3/31 1:01,6.1,16,6.2,16,11.7,15
2014/3/31 1:02,6.2,16,6.2,16,9.9,16
2014/3/31 1:03,6.3,16,6.3,16,9.9,15
2014/3/31 1:04,6,16,6.2,16,11.1,16
2014/3/31 1:05,6,16,6.1,16,11.3,14
2014/3/31 1:06,6,16,6,16,9.5,15
2014/3/31 1:07,5.9,16,6,16,9.7,1
2014/3/31 1:08,5.9,16,6,16,10.1,16
2014/3/31 1:09,6.3,16,6.3,16,11.6,16
2014/3/31 1:10,6.3,16,6.4,16,10.5,15
2014/3/31 1:11,6.3,16,6.4,16,11.7,15
2014/3/31 1:12,6.4,16,6.4,16,11.9,15
2014/3/31 1:13,6.1,16,6.3,16,7.8,16
2014/3/31 1:14,6.2,16,6.3,16,10.9,16
2014/3/31 1:15,6,16,6.2,16,12.2,15
2014/3/31 1:16,6,16,6.1,16,12.3,16
2014/3/31 1:17,6.3,16,6.3,16,11.7,15
2014/3/31 1:18,6.2,16,6.3,16,11.4,16
2014/3/31 1:19,6.2,16,6.3,16,12.1,16
2014/3/31 1:20,6.3,16,6.3,16,11.5,15
2014/3/31 1:21,6.4,16,6.4,16,10.8,16
2014/3/31 1:22,6.5,16,6.5,16,14.3,16
2014/3/31 1:23,6.5,16,6.5,16,10.3,16
2014/3/31 1:24,6.3,16,6.5,16,6.4,16
2014/3/31 1:25,6.4,16,6.4,16,8.9,14
2014/3/31 1:26,6.2,16,6.3,16,8.1,15
2014/3/31 1:27,6,16,6.2,16,9.1,15
2014/3/31 1:28,5.9,16,6,16,7.1,2
2014/3/31 1:29,5.5,16,5.9,16,6.3,16
2014/3/31 1:30,5.4,16,5.5,16,9.3,16
2014/3/31 1:31,5.2,16,5.5,16,6,16
2014/3/31 1:32,4.8,16,5.1,16,7.2,1
2014/3/31 1:33,4.7,16,4.9,16,7.5,16
2014/3/31 1:34,4.6,16,4.7,16,5.6,16
2014/3/31 1:35,4.4,16,4.6,16,5,16
2014/3/31 1:36,4.4,16,4.4,16,9.1,16
2014/3/31 1:37,4,16,4.4,16,6.9,1
2014/3/31 1:38,3.9,16,4,16,7.5,16
2014/3/31 1:39,3.9,16,3.9,16,6.9,1
2014/3/31 1:40,3.7,16,3.9,16,6.1,16
2014/3/31 1:41,3.6,16,3.7,16,5.1,2
2014/3/31 1:42,3.4,16,3.6,16,5.2,16
2014/3/31 1:43,3.4,16,3.4,16,6.4,16
2014/3/31 1:44,3.5,16,3.5,16,7.2,15
2014/3/31 1:45,3.6,16,3.6,16,7.5,15
2014/3/31 1:46,3.6,16,3.7,16,7.6,16
2014/3/31 1:47,3.8,16,3.8,16,6.4,15
2014/3/31 1:48,3.9,16,3.9,16,7,16
2014/3/31 1:49,3.8,16,3.9,16,6.1,16
2014/3/31 1:50,3.9,16,3.9,16,5.6,16
2014/3/31 1:51,3.8,16,3.9,16,4.7,16
2014/3/31 1:52,4,16,4,16,5.2,1
2014/3/31 1:53,4.1,16,4.1,16,6.4,16
2014/3/31 1:54,4.2,16,4.2,16,8.4,16
2014/3/31 1:55,4.1,16,4.1,16,5.7,16
2014/3/31 1:56,3.9,16,4.1,16,4.4,15
2014/3/31 1:57,3.6,16,3.9,16,3.6,16
2014/3/31 1:58,3.6,16,3.6,16,6.2,16
2014/3/31 1:59,3.8,16,3.8,16,7.1,16
2014/3/31 2:00,3.6,16,3.8,16,5.5,15
2014/3/31 2:01,3.5,16,3.6,16,3,14
2014/3/31 2:02,3.4,16,3.5,16,4.2,16
2014/3/31 2:03,3.2,16,3.4,16,3.5,16
2014/3/31 2:04,2.8,16,3.1,16,3.2,16
2014/3/31 2:05,2.6,16,2.8,16,3.1,1
2014/3/31 2:06,2.8,16,2.8,16,7,16
2014/3/31 2:07,3,16,3,16,6.5,15
2014/3/31 2:08,3.1,16,3.1,16,9.1,15
2014/3/31 2:09,3,16,3.1,16,8.2,15
2014/3/31 2:10,3,16,3.1,16,6.4,14
2014/3/31 2:11,3.1,16,3.1,16,4.4,2
2014/3/31 2:12,3.3,16,3.3,16,6.2,1
2014/3/31 2:13,3.4,16,3.4,16,6.2,16
2014/3/31 2:14,3.6,16,3.6,16,7.4,16
2014/3/31 2:15,3.6,16,3.6,16,3.5,15
2014/3/31 2:16,3.5,16,3.6,16,3.7,16
2014/3/31 2:17,3.2,16,3.4,16,3.1,16
2014/3/31 2:18,2.8,16,3.2,16,3.5,14
2014/3/31 2:19,2.6,16,2.8,16,5.4,15
2014/3/31 2:20,2.7,16,2.7,16,7.7,16
2014/3/31 2:21,2.7,16,2.7,16,4.4,15
2014/3/31 2:22,2.5,16,2.6,16,4.3,16
2014/3/31 2:23,2.3,16,2.4,16,2.5,16
2014/3/31 2:24,2.2,16,2.3,16,6.3,16
2014/3/31 2:25,2.6,16,2.6,16,9.2,14
2014/3/31 2:26,2.9,16,2.9,16,8.3,14
2014/3/31 2:27,3.2,16,3.2,16,7.5,15
2014/3/31 2:28,3.8,16,3.8,16,10.3,16
2014/3/31 2:29,4.2,16,4.2,16,9.8,15
2014/3/31 2:30,4.2,16,4.2,16,7.4,15
2014/3/31 2:31,4.3,15,4.3,16,5.7,16
2014/3/31 2:32,4.3,16,4.3,16,4.5,15
2014/3/31 2:33,4.4,15,4.4,16,4.9,15
2014/3/31 2:34,4.6,15,4.6,15,8.2,15
2014/3/31 2:35,4.4,16,4.6,15,9.1,15
2014/3/31 2:36,4,16,4.3,15,3.5,2
2014/3/31 2:37,3.7,16,4,15,4.3,14
2014/3/31 2:38,3.5,16,3.7,15,6.2,16
2014/3/31 2:39,3.2,16,3.5,15,7.1,16
2014/3/31 2:40,3.2,16,3.2,15,6.2,16
2014/3/31 2:41,3.3,16,3.3,15,7.4,14
2014/3/31 2:42,3.2,16,3.3,15,3.8,15
2014/3/31 2:43,3.3,16,3.3,15,7.5,16
2014/3/31 2:44,3.3,16,3.4,15,4.9,16
2014/3/31 2:45,3.1,16,3.2,16,4.3,1
2014/3/31 2:46,3.5,16,3.5,16,8.3,16
2014/3/31 2:47,3.9,16,3.9,16,8.4,15
2014/3/31 2:48,3.8,16,3.9,16,6.2,16
2014/3/31 2:49,3.8,16,3.8,16,6.9,16
2014/3/31 2:50,3.8,16,3.9,16,4.7,1
2014/3/31 2:51,3.9,16,3.9,16,8.4,16
2014/3/31 2:52,4.1,16,4.1,16,8.2,1
2014/3/31 2:53,4.1,16,4.2,16,9.1,15
2014/3/31 2:54,4.3,16,4.3,16,7.4,16
2014/3/31 2:55,4.5,16,4.5,16,9.7,16
2014/3/31 2:56,4.3,16,4.5,16,6.2,1
2014/3/31 2:57,4.2,16,4.3,16,9.7,1
2014/3/31 2:58,4.3,16,4.3,16,8.5,15
2014/3/31 2:59,4.4,16,4.4,16,8.2,15
2014/3/31 3:00,4.6,16,4.6,16,9,16
2014/3/31 3:01,4.4,16,4.7,16,11.3,16
2014/3/31 3:02,4.4,16,4.4,16,6.1,16
2014/3/31 3:03,4.4,16,4.4,16,9.4,16
2014/3/31 3:04,4.3,16,4.4,16,7.8,16
2014/3/31 3:05,4.3,16,4.4,16,9.1,16
2014/3/31 3:06,4.7,16,4.7,16,11.5,16
2014/3/31 3:07,4.7,16,4.8,16,9.9,16
2014/3/31 3:08,4.8,16,4.8,16,9.5,15
2014/3/31 3:09,4.7,16,4.9,16,8.2,15
2014/3/31 3:10,4.8,16,4.8,16,10.3,16
2014/3/31 3:11,4.9,16,4.9,16,6.8,14
2014/3/31 3:12,5.1,16,5.1,16,13.1,1
2014/3/31 3:13,5.2,16,5.2,16,8.3,2
2014/3/31 3:14,5.6,16,5.6,16,12.8,16
2014/3/31 3:15,5.6,16,5.6,16,11.8,16
2014/3/31 3:16,5.6,16,5.7,16,13.1,16
2014/3/31 3:17,5.6,16,5.6,16,8.6,16
2014/3/31 3:18,5.6,16,5.6,16,8.6,16
2014/3/31 3:19,5.5,16,5.6,16,7.4,1
2014/3/31 3:20,5.4,16,5.5,16,7.4,15
2014/3/31 3:21,5.4,16,5.4,16,6.2,16
2014/3/31 3:22,5.1,16,5.4,16,7.2,16
2014/3/31 3:23,5.1,16,5.1,16,6.7,1
2014/3/31 3:24,4.8,16,5.1,16,9.3,16
2014/3/31 3:25,4.8,16,4.8,16,10.2,16
2014/3/31 3:26,4.8,16,4.8,16,10.5,2
2014/3/31 3:27,4.8,16,4.8,16,11.3,1
2014/3/31 3:28,4.9,16,4.9,16,10.8,1
2014/3/31 3:29,5.2,16,5.2,16,10.3,16
2014/3/31 3:30,5.4,16,5.4,16,10.8,16
2014/3/31 3:31,5.7,16,5.7,16,10.5,16
2014/3/31 3:32,6.1,16,6.1,16,11.6,16
2014/3/31 3:33,6.1,16,6.1,16,7,16
2014/3/31 3:34,6.4,16,6.4,16,12.1,16
2014/3/31 3:35,6.6,16,6.6,16,11.6,15
2014/3/31 3:36,6.4,16,6.6,16,8.9,15
2014/3/31 3:37,6.3,16,6.4,16,9.9,14
2014/3/31 3:38,6.1,16,6.3,16,8.6,15
2014/3/31 3:39,6,16,6.1,16,9.2,16
2014/3/31 3:40,6,16,6,16,8.7,1
2014/3/31 3:41,6.2,16,6.2,16,12.8,15
2014/3/31 3:42,6,16,6.2,16,10.1,16
2014/3/31 3:43,6,16,6.1,16,8.7,15
2014/3/31 3:44,5.7,16,6.1,16,7.5,16
2014/3/31 3:45,5.3,16,5.6,16,6.9,1
2014/3/31 3:46,5.2,16,5.3,16,5.8,2
2014/3/31 3:47,5.1,16,5.3,16,7.6,1
2014/3/31 3:48,5.3,16,5.3,16,8.2,1
2014/3/31 3:49,5.4,16,5.4,16,9.1,1
2014/3/31 3:50,5.6,16,5.6,16,12.6,15
2014/3/31 3:51,5.6,16,5.6,16,13.2,15
2014/3/31 3:52,5.6,16,5.6,16,9.9,15
2014/3/31 3:53,5.6,16,5.6,16,10.5,15
2014/3/31 3:54,5.7,16,5.7,16,9.8,16
2014/3/31 3:55,6,16,6,16,11.6,1
2014/3/31 3:56,6.2,16,6.2,16,10.6,16
2014/3/31 3:57,6.4,16,6.4,16,13.1,1
2014/3/31 3:58,6.4,16,6.5,16,9.3,15
2014/3/31 3:59,6.4,16,6.4,16,10.9,14
2014/3/31 4:00,6.3,16,6.4,16,10.1,14
2014/3/31 4:01,5.9,16,6.3,16,8.6,16
2014/3/31 4:02,5.7,16,5.8,16,9.1,16
2014/3/31 4:03,5.6,16,5.7,16,7.6,14
2014/3/31 4:04,5.5,16,5.6,16,9.1,16
2014/3/31 4:05,5.5,16,5.5,16,9.9,16
2014/3/31 4:06,5.5,16,5.6,16,11.4,1
2014/3/31 4:07,5.5,16,5.6,16,9.3,16
2014/3/31 4:08,5.3,16,5.5,16,8.6,16
2014/3/31 4:09,5.3,16,5.4,16,9.7,16
2014/3/31 4:10,5.3,16,5.4,16,10.3,16
2014/3/31 4:11,5.5,16,5.5,16,10.8,16
2014/3/31 4:12,5.6,16,5.6,16,10.9,16
2014/3/31 4:13,5.7,16,5.8,16,9.3,1
2014/3/31 4:14,5.7,16,5.8,16,11.5,14
2014/3/31 4:15,5.7,16,5.8,16,9.9,15
2014/3/31 4:16,5.6,16,5.8,16,8.7,15
2014/3/31 4:17,5.5,16,5.6,16,9.3,15
2014/3/31 4:18,5.2,16,5.4,16,3.6,16
2014/3/31 4:19,5,16,5.2,16,5.4,1
2014/3/31 4:20,4.8,16,4.9,16,8.5,16
2014/3/31 4:21,4.8,16,4.9,16,7.2,16
2014/3/31 4:22,4.7,16,4.7,16,8.9,16
2014/3/31 4:23,5,16,5,16,10.2,16
2014/3/31 4:24,4.9,16,5,16,9.4,1
2014/3/31 4:25,4.9,16,5,16,10.5,1
2014/3/31 4:26,4.8,16,4.9,16,7.5,1
2014/3/31 4:27,4.8,16,4.8,16,8.1,16
2014/3/31 4:28,5,16,5,16,8.4,16
2014/3/31 4:29,5.2,16,5.2,16,10.3,15
2014/3/31 4:30,5.1,16,5.2,16,7.9,14
2014/3/31 4:31,5,16,5.1,16,8.2,15
2014/3/31 4:32,4.9,16,5,16,8.5,16
2014/3/31 4:33,4.6,16,4.9,16,10.8,16
2014/3/31 4:34,4.7,16,4.7,16,10.8,16
2014/3/31 4:35,4.8,16,4.8,16,12.7,16
2014/3/31 4:36,4.9,16,4.9,16,9.1,16
2014/3/31 4:37,4.9,16,4.9,16,8.4,16
2014/3/31 4:38,5.1,16,5.1,16,8.6,16
2014/3/31 4:39,5.4,16,5.4,16,12.5,16
2014/3/31 4:40,5.5,16,5.5,16,12.2,16
2014/3/31 4:41,6,16,6,16,13.1,16
2014/3/31 4:42,6.4,16,6.4,16,13.2,16
2014/3/31 4:43,6.5,16,6.6,16,9.4,15
2014/3/31 4:44,6.4,16,6.5,16,8.2,1
2014/3/31 4:45,6.1,16,6.4,16,11.5,16
2014/3/31 4:46,6.4,16,6.4,16,10.8,16
2014/3/31 4:47,6.9,16,6.9,16,15.3,15
2014/3/31 4:48,7.2,16,7.2,16,13.3,15
2014/3/31 4:49,7.1,16,7.2,16,12.1,15
2014/3/31 4:50,7,16,7.1,16,9.9,16
2014/3/31 4:51,6.7,16,7,16,9.9,15
2014/3/31 4:52,6.3,16,6.7,16,9.5,15
2014/3/31 4:53,6.7,16,6.7,16,13.1,2
2014/3/31 4:54,6.9,16,6.9,16,12.1,16
2014/3/31 4:55,7.2,16,7.2,16,13.2,1
2014/3/31 4:56,7,16,7.2,16,9.4,15
2014/3/31 4:57,6.9,16,7,16,11.6,13
2014/3/31 4:58,6.9,16,7,16,12.1,15
2014/3/31 4:59,6.8,16,6.8,16,13.2,16
2014/3/31 5:00,6.8,16,6.8,16,10.8,15
2014/3/31 5:01,6.9,16,6.9,16,12.4,15
2014/3/31 5:02,7.1,16,7.1,16,11.8,16
2014/3/31 5:03,6.9,16,7.1,16,10.3,15
2014/3/31 5:04,7.1,16,7.1,16,13.3,16
2014/3/31 5:05,6.9,15,7.1,16,9.8,16
2014/3/31 5:06,7.1,16,7.1,16,11.4,15
2014/3/31 5:07,6.9,15,7.1,16,10.1,15
2014/3/31 5:08,6.8,15,6.9,16,10.9,15
2014/3/31 5:09,6.5,15,6.8,16,6.1,16
2014/3/31 5:10,6.3,16,6.5,16,6.4,15
2014/3/31 5:11,6,16,6.3,16,10.2,1
2014/3/31 5:12,6,16,6,16,10.7,15
2014/3/31 5:13,5.9,16,6.1,16,9.7,16
2014/3/31 5:14,5.4,16,5.9,16,6.7,15
2014/3/31 5:15,5.3,15,5.4,16,6.2,15
2014/3/31 5:16,5.1,15,5.2,15,13.5,16
2014/3/31 5:17,5.2,15,5.2,15,14.2,16
2014/3/31 5:18,5.1,15,5.2,15,10.6,15
2014/3/31 5:19,5.4,15,5.4,16,10.8,16
2014/3/31 5:20,5.7,15,5.7,16,10.8,15
2014/3/31 5:21,5.7,15,5.8,16,9.2,14
2014/3/31 5:22,5.6,15,5.7,16,8.4,15
2014/3/31 5:23,5.6,15,5.6,16,7.5,16
2014/3/31 5:24,5.6,15,5.6,15,7.2,16
2014/3/31 5:25,5.7,15,5.8,15,9.2,16
2014/3/31 5:26,5.7,15,5.8,15,7.7,1
2014/3/31 5:27,5.3,15,5.6,15,6.8,16
2014/3/31 5:28,5.2,15,5.3,15,8.4,14
2014/3/31 5:29,5,15,5.1,15,9.4,1
2014/3/31 5:30,4.9,15,5,15,8.1,15
2014/3/31 5:31,5.1,15,5.1,15,10.5,16
2014/3/31 5:32,5.2,15,5.3,15,10.9,14
2014/3/31 5:33,5.3,15,5.3,15,9.9,16
2014/3/31 5:34,5.5,15,5.5,15,10.5,16
2014/3/31 5:35,5.4,15,5.5,15,11.4,15
2014/3/31 5:36,5.5,15,5.6,15,9.9,16
2014/3/31 5:37,5.8,15,5.8,15,8.9,16
2014/3/31 5:38,5.8,15,5.8,15,10.1,15
2014/3/31 5:39,6,15,6,15,12.6,15
2014/3/31 5:40,6.3,15,6.3,15,13.2,1
2014/3/31 5:41,6.3,15,6.4,15,12.4,16
2014/3/31 5:42,6.2,15,6.2,15,12.3,15
2014/3/31 5:43,6.4,15,6.4,15,12.8,15
2014/3/31 5:44,6.3,15,6.4,15,9.8,16
2014/3/31 5:45,6.4,15,6.4,15,10.7,15
2014/3/31 5:46,6.5,15,6.5,15,13.5,14
2014/3/31 5:47,6.7,16,6.7,16,13.5,16
2014/3/31 5:48,6.7,16,6.8,16,7.9,2
2014/3/31 5:49,6.5,16,6.7,16,9.2,15
2014/3/31 5:50,6.3,16,6.5,16,8.3,15
2014/3/31 5:51,6.2,16,6.3,16,11.5,15
2014/3/31 5:52,6.4,16,6.4,16,11,16
2014/3/31 5:53,6.2,16,6.3,16,10.2,15
2014/3/31 5:54,6.2,16,6.2,16,10,15
2014/3/31 5:55,6.3,16,6.3,16,10.5,15
2014/3/31 5:56,6.2,16,6.4,16,9.8,15
2014/3/31 5:57,5.8,16,6.1,16,7.7,16
2014/3/31 5:58,5.7,16,5.8,16,7.6,15
2014/3/31 5:59,5.7,16,5.8,16,7.4,15
2014/3/31 6:00,5.8,16,5.8,16,11.3,14
2014/3/31 6:01,5.7,16,5.9,16,9.9,16
2014/3/31 6:02,5.5,16,5.8,16,7.1,15
2014/3/31 6:03,5.3,15,5.5,16,7.2,16
2014/3/31 6:04,5.3,15,5.3,16,13.1,15
2014/3/31 6:05,5.2,15,5.3,16,13.1,16
2014/3/31 6:06,5.3,16,5.3,16,10.8,15
2014/3/31 6:07,5.4,16,5.4,16,10.7,15
2014/3/31 6:08,5.6,16,5.6,16,7.9,16
2014/3/31 6:09,5.9,16,5.9,16,12.2,16
2014/3/31 6:10,5.9,15,5.9,16,10.2,15
2014/3/31 6:11,5.9,16,6,16,8.5,1
2014/3/31 6:12,5.9,16,6,16,7.5,16
2014/3/31 6:13,6.1,16,6.1,16,9.8,15
2014/3/31 6:14,6.1,16,6.3,16,10.8,16
2014/3/31 6:15,5.9,16,6.1,16,6.4,1
2014/3/31 6:16,5.9,16,6,16,9.1,16
2014/3/31 6:17,5.7,16,5.9,16,6.3,15
2014/3/31 6:18,5.7,16,5.7,16,7.5,16
2014/3/31 6:19,5.2,16,5.7,16,6.4,15
2014/3/31 6:20,4.8,16,5.1,16,5.6,16
2014/3/31 6:21,4.6,16,4.8,16,7.5,16
2014/3/31 6:22,4.6,16,4.6,16,7.7,15
2014/3/31 6:23,4.8,16,4.8,16,10.9,16
2014/3/31 6:24,4.9,15,4.9,16,10.2,16
2014/3/31 6:25,5.1,15,5.2,16,11.6,16
2014/3/31 6:26,5.3,15,5.3,16,14.2,15
2014/3/31 6:27,5.5,16,5.5,16,10.6,1
2014/3/31 6:28,5.4,16,5.5,16,7.2,16
2014/3/31 6:29,5.6,16,5.6,16,10.5,16
2014/3/31 6:30,5.9,16,5.9,16,9.2,15
2014/3/31 6:31,6,16,6,16,7.2,1
2014/3/31 6:32,6,16,6.1,16,8.7,16
2014/3/31 6:33,5.9,16,6,16,10.6,1
2014/3/31 6:34,6.1,16,6.1,16,11.9,16
2014/3/31 6:35,6.1,16,6.2,16,13.2,16
2014/3/31 6:36,6,16,6.3,16,11.8,1
2014/3/31 6:37,5.9,16,6.1,16,9.3,1
2014/3/31 6:38,5.8,16,5.9,16,4.4,16
2014/3/31 6:39,5.4,16,5.8,16,3.5,14
2014/3/31 6:40,5.5,16,5.5,16,10.8,15
2014/3/31 6:41,5.4,16,5.5,16,9.7,16
2014/3/31 6:42,5.3,16,5.4,16,6.5,16
2014/3/31 6:43,5.1,16,5.2,16,8.7,15
2014/3/31 6:44,4.8,16,5.1,16,10.5,15
2014/3/31 6:45,4.7,16,4.8,16,10.6,16
2014/3/31 6:46,4.7,16,4.8,16,13,16
2014/3/31 6:47,4.9,16,4.9,16,13.3,16
2014/3/31 6:48,5.3,16,5.3,16,12.3,16
2014/3/31 6:49,5.8,16,5.8,16,12.3,16
2014/3/31 6:50,5.8,16,5.8,16,11.3,16
2014/3/31 6:51,6.1,16,6.1,16,13.8,15
2014/3/31 6:52,6.1,16,6.1,16,7.8,15
2014/3/31 6:53,6.2,15,6.2,15,9.7,14
2014/3/31 6:54,6.1,16,6.2,15,11.5,16
2014/3/31 6:55,6.2,16,6.2,15,9.8,14
2014/3/31 6:56,6.2,15,6.2,15,9.1,15
2014/3/31 6:57,5.7,15,6.1,15,5.8,15
2014/3/31 6:58,5.3,15,5.7,15,8.7,14
2014/3/31 6:59,5.2,15,5.4,15,12.8,16
2014/3/31 7:00,5.2,15,5.3,15,9,16
2014/3/31 7:01,5.3,15,5.3,15,12.5,16
2014/3/31 7:02,5.7,16,5.7,15,12.1,16
2014/3/31 7:03,6.1,16,6.1,15,14.2,15
2014/3/31 7:04,6,16,6.1,16,11.3,15
2014/3/31 7:05,6,16,6,15,11.3,15
2014/3/31 7:06,6.4,16,6.4,16,15.1,16
2014/3/31 7:07,6.9,16,6.9,16,14.9,16
2014/3/31 7:08,7,16,7.1,16,9.3,16
2014/3/31 7:09,7,16,7,16,9.9,16
2014/3/31 7:10,6.9,16,6.9,16,10.6,16
2014/3/31 7:11,6.8,16,6.9,16,11.8,15
2014/3/31 7:12,6.7,16,6.8,16,11.4,16
2014/3/31 7:13,6.4,16,6.6,16,10.3,14
2014/3/31 7:14,6.4,15,6.5,16,10.1,15
2014/3/31 7:15,6.6,15,6.6,16,13.1,14
2014/3/31 7:16,6.3,15,6.6,16,11.4,15
2014/3/31 7:17,6.1,15,6.3,16,12.4,16
2014/3/31 7:18,6.2,15,6.2,16,9.4,1
2014/3/31 7:19,6.3,15,6.3,16,9.9,16
2014/3/31 7:20,6.3,15,6.4,16,10.5,15
2014/3/31 7:21,6.3,15,6.4,16,13.4,16
2014/3/31 7:22,6,15,6.2,16,7.6,16
2014/3/31 7:23,6.1,15,6.2,15,10.5,1
2014/3/31 7:24,6,15,6.1,15,9.1,16
2014/3/31 7:25,5.9,15,6,15,9.7,16
2014/3/31 7:26,5.8,16,5.9,15,11.4,15
2014/3/31 7:27,5.8,15,5.9,15,9.7,15
2014/3/31 7:28,5.8,15,5.8,15,11.6,16
2014/3/31 7:29,5.5,15,5.8,15,10.8,14
2014/3/31 7:30,6.1,16,6.1,15,16,16
2014/3/31 7:31,6.4,15,6.4,15,16.5,15
2014/3/31 7:32,6.6,15,6.6,15,13,15
2014/3/31 7:33,6.4,15,6.6,15,10.7,15
2014/3/31 7:34,6.6,15,6.6,15,14.8,14
2014/3/31 7:35,6.5,15,6.7,15,7.6,14
2014/3/31 7:36,6.2,15,6.5,15,7.2,16
2014/3/31 7:37,6.2,15,6.2,15,9.4,15
2014/3/31 7:38,6,15,6.2,15,8.3,16
2014/3/31 7:39,5.9,15,6,15,5.5,15
2014/3/31 7:40,5.3,15,5.9,15,9.8,16
2014/3/31 7:41,4.9,15,5.3,15,7.9,16
2014/3/31 7:42,4.6,15,4.8,15,9.2,2
2014/3/31 7:43,4.6,16,4.7,15,6.7,3
2014/3/31 7:44,4.1,16,4.5,15,6.5,4
2014/3/31 7:45,3.9,15,4,15,4.4,14
2014/3/31 7:46,3.7,16,3.9,15,2.6,7
2014/3/31 7:47,3.4,16,3.7,15,3.8,9
2014/3/31 7:48,3.1,16,3.3,15,4.7,15
2014/3/31 7:49,3.2,16,3.2,15,6.1,16
2014/3/31 7:50,3.3,16,3.3,15,13.2,15
2014/3/31 7:51,3.4,16,3.4,15,9.9,16
2014/3/31 7:52,3.6,15,3.6,15,10.9,15
2014/3/31 7:53,3.4,15,3.6,16,6.2,15
2014/3/31 7:54,3.4,15,3.4,16,5.6,13
2014/3/31 7:55,3.5,15,3.5,15,7.6,15
2014/3/31 7:56,3.9,15,3.9,15,10,16
2014/3/31 7:57,4,15,4,15,5.5,15
2014/3/31 7:58,4.1,15,4.1,15,5.8,15
2014/3/31 7:59,4.4,15,4.4,15,8.5,15
2014/3/31 8:00,4.1,15,4.4,15,7.5,13
2014/3/31 8:01,3.8,15,4.1,15,12.3,15
2014/3/31 8:02,4,15,4.1,15,12.3,15
2014/3/31 8:03,4.3,15,4.3,15,9.5,16
2014/3/31 8:04,4.7,15,4.7,15,8.5,15
2014/3/31 8:05,4.7,15,4.8,15,7.6,15
2014/3/31 8:06,4.5,14,4.6,15,5.8,15
2014/3/31 8:07,4.6,15,4.6,15,6.4,15
2014/3/31 8:08,4.6,15,4.6,15,4.5,15
2014/3/31 8:09,4.5,15,4.6,15,11.7,1
2014/3/31 8:10,4.4,15,4.5,15,7.1,16
2014/3/31 8:11,4.5,15,4.6,15,7.1,15
2014/3/31 8:12,4.1,15,4.5,15,6,15
2014/3/31 8:13,4,15,4.1,15,6.2,13
2014/3/31 8:14,3.7,14,3.9,15,5,10
2014/3/31 8:15,3.5,14,3.6,15,5.4,13
2014/3/31 8:16,3.4,14,3.6,14,3.7,2
2014/3/31 8:17,3.3,14,3.5,15,6.8,15
2014/3/31 8:18,3.4,14,3.4,15,7,15
2014/3/31 8:19,3.2,14,3.4,15,6.5,15
2014/3/31 8:20,3.1,14,3.3,15,6,16
2014/3/31 8:21,3.2,14,3.2,15,9.3,15
2014/3/31 8:22,3.4,14,3.4,15,8.4,16
2014/3/31 8:23,3.5,14,3.5,14,8.2,16
2014/3/31 8:24,3.5,15,3.5,14,5.1,3
2014/3/31 8:25,3.5,16,3.5,14,4.8,4
2014/3/31 8:26,3.5,16,3.6,16,3.7,4
2014/3/31 8:27,3.5,1,3.5,16,4.7,9
2014/3/31 8:28,3.3,1,3.5,16,5.2,9
2014/3/31 8:29,3.2,2,3.3,16,5.4,10
2014/3/31 8:30,3.4,16,3.4,16,6.2,11
2014/3/31 8:31,3,2,3.3,16,4.5,16
2014/3/31 8:32,2.8,4,3,16,6.8,5
2014/3/31 8:33,2.8,6,2.8,16,7,5
2014/3/31 8:34,2.6,6,2.8,16,4.2,4
2014/3/31 8:35,2.5,8,2.6,16,4.9,9
2014/3/31 8:36,2.5,9,2.5,16,3.9,10
2014/3/31 8:37,2.4,9,2.5,1,1.8,9
2014/3/31 8:38,2.3,9,2.4,1,3.2,9
2014/3/31 8:39,2.2,8,2.3,1,4.4,9
2014/3/31 8:40,1.9,8,2.2,16,1.6,10
2014/3/31 8:41,1.8,8,1.9,2,2.6,8
2014/3/31 8:42,1.5,9,1.8,5,2.2,9
2014/3/31 8:43,1.4,10,1.5,6,4.8,10
2014/3/31 8:44,1.4,10,1.4,7,3.9,13
2014/3/31 8:45,1.5,11,1.5,8,6.3,12
2014/3/31 8:46,1.6,11,1.6,9,6.2,14
2014/3/31 8:47,2,12,2,9,6.9,14
2014/3/31 8:48,2.2,13,2.2,8,6.5,1
2014/3/31 8:49,2.3,13,2.4,13,4.8,4
2014/3/31 8:50,2.4,13,2.4,13,2.9,5
2014/3/31 8:51,2.5,13,2.5,13,3.3,3
2014/3/31 8:52,2.6,15,2.6,13,3.6,16
2014/3/31 8:53,2.5,16,2.7,15,5.8,16
2014/3/31 8:54,2.7,16,2.7,15,4.5,16
2014/3/31 8:55,2.5,16,2.6,15,5.2,12
2014/3/31 8:56,2.4,1,2.5,15,3.8,10
2014/3/31 8:57,2.2,2,2.4,15,4.3,1
2014/3/31 8:58,2,2,2.1,15,6.1,15
2014/3/31 8:59,2.2,1,2.2,15,8.2,15
2014/3/31 9:00,2.7,16,2.7,15,10.5,15
2014/3/31 9:01,2.9,16,2.9,16,8.2,16
2014/3/31 9:02,3.2,15,3.2,15,8.2,16
2014/3/31 9:03,3.4,15,3.4,15,7.7,15
2014/3/31 9:04,3.6,15,3.6,15,6.3,15
2014/3/31 9:05,3.7,15,3.7,15,6.3,13
2014/3/31 9:06,4,15,4,15,7.2,15
2014/3/31 9:07,4.2,15,4.2,15,7.7,9
2014/3/31 9:08,4.2,14,4.3,15,4.5,15
2014/3/31 9:09,4.1,14,4.2,15,5.7,11
2014/3/31 9:10,3.7,14,4.1,15,4.3,16
2014/3/31 9:11,3.6,14,3.7,15,4.2,14
2014/3/31 9:12,3.2,13,3.6,15,2.5,11
2014/3/31 9:13,2.9,13,3.2,15,2.2,13
2014/3/31 9:14,2.7,13,2.9,15,4.1,15
2014/3/31 9:15,2.6,13,2.6,15,5.5,15
2014/3/31 9:16,2.3,13,2.6,15,5.8,16
2014/3/31 9:17,2,14,2.3,15,3.2,4
2014/3/31 9:18,1.9,14,2,14,2.5,3
2014/3/31 9:19,1.9,14,1.9,14,4.2,15
2014/3/31 9:20,2.2,14,2.2,14,8.2,14
2014/3/31 9:21,2.2,15,2.2,14,6.9,15
2014/3/31 9:22,2.3,15,2.3,13,4.9,13
2014/3/31 9:23,2.5,15,2.5,13,7.4,12
2014/3/31 9:24,2.8,15,2.8,15,8.4,13
2014/3/31 9:25,3.2,14,3.2,14,9.3,12
2014/3/31 9:26,3.3,14,3.3,14,6.2,12
2014/3/31 9:27,3.4,14,3.4,14,4.7,15
2014/3/31 9:28,3.5,14,3.5,14,4.1,12
2014/3/31 9:29,3.5,13,3.5,14,4.2,10
2014/3/31 9:30,3.1,13,3.5,14,3.5,8
2014/3/31 9:31,3,13,3.1,14,4.2,13
2014/3/31 9:32,3,13,3,14,5.7,14
2014/3/31 9:33,2.8,13,3,14,3,11
2014/3/31 9:34,2.7,13,2.8,14,5.4,12
2014/3/31 9:35,2.4,13,2.7,14,4.2,14
2014/3/31 9:36,2.2,13,2.3,14,2.5,10
2014/3/31 9:37,2.1,12,2.1,14,1.9,10
2014/3/31 9:38,2.1,12,2.1,14,5.2,11
2014/3/31 9:39,2.3,12,2.3,13,7.6,12
2014/3/31 9:40,2.4,12,2.4,13,3.8,11
2014/3/31 9:41,2.6,12,2.6,13,4.7,10
2014/3/31 9:42,2.8,12,2.8,13,9.1,16
2014/3/31 9:43,3,12,3,12,6.1,15
2014/3/31 9:44,3.2,12,3.2,12,9.1,15
2014/3/31 9:45,3.4,13,3.4,12,6.9,16
2014/3/31 9:46,3.6,13,3.6,13,5,16
2014/3/31 9:47,3.7,14,3.7,14,7.2,16
2014/3/31 9:48,3.9,14,3.9,14,5.8,16
2014/3/31 9:49,3.8,15,3.9,14,6.1,13
2014/3/31 9:50,3.8,15,3.9,14,5.1,10
2014/3/31 9:51,3.6,15,3.8,14,2.1,6
2014/3/31 9:52,3.3,15,3.5,14,5,16
2014/3/31 9:53,3.2,15,3.3,14,4.7,14
2014/3/31 9:54,3,15,3.1,14,6.9,14
2014/3/31 9:55,3,15,3,14,7.8,15
2014/3/31 9:56,2.9,14,3,14,3.2,8
2014/3/31 9:57,3,14,3,14,8.4,15
2014/3/31 9:58,3.1,14,3.1,14,8.3,15
2014/3/31 9:59,3.2,14,3.2,15,6.8,15
2014/3/31 10:00,3.4,15,3.4,15,8.6,1
2014/3/31 10:01,3.7,15,3.7,15,8.9,15
2014/3/31 10:02,4.2,15,4.2,15,10.6,1
2014/3/31 10:03,4.5,15,4.6,15,9.5,14
2014/3/31 10:04,4.2,15,4.5,15,1.9,2
2014/3/31 10:05,4.2,15,4.2,15,9,14
2014/3/31 10:06,4.4,15,4.4,15,8.3,15
2014/3/31 10:07,4.3,15,4.4,15,4.5,1
2014/3/31 10:08,3.9,16,4.2,15,3.5,2
2014/3/31 10:09,3.7,16,3.8,15,5.4,15
2014/3/31 10:10,3.7,16,3.7,15,9.9,16
2014/3/31 10:11,3.5,16,3.7,15,7.2,15
2014/3/31 10:12,3.1,16,3.5,15,5.7,14
2014/3/31 10:13,2.9,15,3.1,15,5.8,14
2014/3/31 10:14,3.1,15,3.1,15,6.1,11
2014/3/31 10:15,3.3,15,3.4,15,12.8,15
2014/3/31 10:16,3.1,15,3.2,15,5.7,16
2014/3/31 10:17,3.4,15,3.4,15,8.2,15
2014/3/31 10:18,3.6,15,3.6,16,5.7,14
2014/3/31 10:19,3.5,15,3.6,16,3.6,16
2014/3/31 10:20,3.1,15,3.5,16,4.4,16
2014/3/31 10:21,3.2,15,3.2,15,5,1
2014/3/31 10:22,3.1,15,3.2,15,3.1,4
2014/3/31 10:23,3,16,3.2,15,3.7,3
2014/3/31 10:24,2.8,1,3,15,2.9,2
2014/3/31 10:25,2.4,1,2.8,15,2.7,9
2014/3/31 10:26,2.1,1,2.4,15,0.6,3
2014/3/31 10:27,1.7,1,2.1,15,1.8,11
2014/3/31 10:28,1.6,2,1.7,15,5,12
2014/3/31 10:29,1.6,3,1.6,15,3.5,11
2014/3/31 10:30,1.7,7,1.7,15,6.3,10
2014/3/31 10:31,1.6,9,1.7,15,6.4,11
2014/3/31 10:32,1.6,10,1.6,16,5.8,10
2014/3/31 10:33,1.6,10,1.6,16,2.9,7
2014/3/31 10:34,1.6,10,1.6,1,4.1,10
2014/3/31 10:35,1.6,10,1.6,1,1.8,5
2014/3/31 10:36,1.7,10,1.7,1,2.4,16
2014/3/31 10:37,1.8,10,1.8,10,5.7,3
2014/3/31 10:38,1.9,11,1.9,11,5.4,3
2014/3/31 10:39,1.9,14,1.9,11,3.5,16
2014/3/31 10:40,1.6,1,1.8,11,1.5,5
2014/3/31 10:41,1.5,3,1.6,11,1.4,14
2014/3/31 10:42,1.5,1,1.5,11,4.8,16
2014/3/31 10:43,1.6,16,1.6,11,3.7,15
2014/3/31 10:44,1.8,1,1.8,11,7.2,3
2014/3/31 10:45,2.1,1,2.1,1,7.2,3
2014/3/31 10:46,2.4,1,2.4,1,7.4,4
2014/3/31 10:47,2.6,2,2.6,2,6.4,3
2014/3/31 10:48,2.5,2,2.6,2,3.7,3
2014/3/31 10:49,2.6,2,2.6,2,3.9,1
2014/3/31 10:50,2.6,2,2.6,2,2.5,16